Regional Weather Roundup
Issued by NWS Grand Forks, ND

Home | Current Version | Previous Version | Graphics & Text | Print | Product List | Glossary On
Versions: 1 2 3 4 5 6 7 8 9 10 11 12 13 14 15 16 17 18 19 20 21 22 23 24 25 26 27 28 29 30 31 32 33 34 35 36 37 38 39 40 41 42 43 44 45 46 47 48 49 50
000
ASUS43 KFGF 191831
RWRFGF
PRAIRIE TO PINES  WEATHER ROUNDUP
NATIONAL WEATHER SERVICE EASTERN NORTH DAKOTA/GRAND FORKS ND
1200 PM CST SUN FEB 19 2017

 **SATELLITE DATA USED TO AUGMENT SKY COVER AT AUTOMATED STATIONS**
 *****  WEATHER ACROSS EASTERN NORTH DAKOTA  *****

CITY           SKY/WX    TMP DP  RH WIND       PRES   REMARKS
GRAND FORKS    CLOUDY    40  32  73 SE13      29.73F
6HR MIN TEMP:  36; 6HR MAX TEMP:  40;

GRAND FRKS AFB PTSUNNY   40  36  86 SE8       29.72F
DEVILS LAKE    FAIR      38  34  85 SE14      29.65F
6HR MIN TEMP:  34; 6HR MAX TEMP:  38;

FARGO          FAIR      49  40  71 SE20G29   29.71F
WAHPETON ARPT  FAIR      50  41  71 SE16      29.72F
$$

 ***** WEATHER ACROSS CENTRAL AND WESTERN NORTH DAKOTA  *****

CITY           SKY/WX    TMP DP  RH WIND       PRES   REMARKS
BISMARCK       FAIR      40  34  79 E6        29.54F
6HR MIN TEMP:  34; 6HR MAX TEMP:  40;

MINOT          CLOUDY    37  34  89 E13       29.55F
6HR MIN TEMP:  34; 6HR MAX TEMP:  37;

JAMESTOWN      FAIR      42  36  79 SE17      29.61F
6HR MIN TEMP:  35; 6HR MAX TEMP:  42;

MINOT AFB      CLOUDY    34  33  93 E13       29.55F
GARRISON         N/A     40  34  79 E9        29.52F
WILLISTON      CLOUDY    35  32  88 E9        29.52S
6HR MIN TEMP:  32; 6HR MAX TEMP:  35;

DICKINSON      FAIR      45  35  68 SE6       29.46F
6HR MIN TEMP:  27; 6HR MAX TEMP:  45;

HETTINGER      FAIR      48  36  63 E3        29.49F
6HR MIN TEMP:  28; 6HR MAX TEMP:  48;

$$

 *****  OTHER AIRPORT OBSERVATIONS IN OUR AREA  *****

CITY           SKY/WX    TMP DP  RH WIND       PRES   REMARKS
WALHALLA       NOT AVBL
GRAFTON AIRPOR FAIR      36  36 100 E6        29.76F
VALLEY CITY AR FAIR      41  41 100 SE14      29.67F
CANDO          NOT AVBL
CAVALIER APRT  FAIR      36  32  87 E6        29.75F
GWINNER        FAIR      45  43  93 E14       29.66F
SHEYENNE NWR     N/A     46  40  78 SE16      29.95S
ROLLA          MOCLDY    32  32 100 E14       29.66S WCI  22
 ***** THE ABOVE OBSERVATIONS ARE NON NWS ARE NOT QUALITY
       CONTROLLED AND MAY MIS-REPORT RAIN FOR SNOW...
$$

  *****  WEATHER ACROSS NORTHERN MINNESOTA  *****

CITY           SKY/WX    TMP DP  RH WIND       PRES   REMARKS
FLAG ISLAND    FAIR      37  28  70 E6        29.88S
WARROAD        FAIR      37  32  81 NE13      29.85F
ROSEAU         FAIR      39  32  75 E9        29.82F
HALLOCK        FAIR      39  34  81 E12       29.76F
THF RVR FALLS  FAIR      39  33  79 E13       29.79F
6HR MIN TEMP:  34; 6HR MAX TEMP:  39;

BAUDETTE       PTSUNNY   39  30  70 E8        29.87F
6HR MIN TEMP:  31; 6HR MAX TEMP:  39;

WASKISH        CLOUDY    46  32  57 SE8       29.86F
CROOKSTON      FAIR      43  37  81 SE15      29.74F
STEPHEN NDAWN    N/A     37  34  87 E12         N/A
GREENBUSH NDAW   N/A     37  34  87 E10         N/A
$$
  *****  WEATHER ACROSS CENTRAL AND WEST MINNESOTA  *****

CITY           SKY/WX    TMP DP  RH WIND       PRES   REMARKS
FOSSTON        FAIR      43  34  70 SE12      29.79F
BEMIDJI        FAIR      40  32  73 E8        29.85S
PARK RAPIDS    CLOUDY    45  34  65 SE9       29.83F
6HR MIN TEMP:  34; 6HR MAX TEMP:  45;

ELBOW LAKE     FAIR      50  41  72 E15G25    29.76F
WADENA         FAIR      43  39  87 E13       29.82F
DETROIT LAKES  FAIR      43  37  81 SE16G22   29.79F
MOORHEAD       FAIR      52  41  66 SE16G22   29.72F
FERGUS FALLS   FAIR      50  39  66 SE18G24   29.78F
MORRIS MN      FAIR      52  45  76 SE21      29.75F
STAPLES        FAIR      46  39  76 SE7       29.85S
$$
  *****  WEATHER ELSEWHERE ACROSS MINNESOTA  *****

CITY           SKY/WX    TMP DP  RH WIND       PRES   REMARKS
DULUTH         FAIR      42  31  64 SE10      29.96F
6HR MIN TEMP:  28; 6HR MAX TEMP:  42;

INTRNTL FALLS  FAIR      41  30  65 SE10      29.91F
6HR MIN TEMP:  29; 6HR MAX TEMP:  41;

ELY            FAIR      45  30  57 SE5       29.95F
CLOQUET        FAIR      45  28  53 E7        29.94F
WHEATON        FAIR      48  41  76 SE22      29.73F
BRAINERD       FAIR      45  35  68 E6        29.87F
6HR MIN TEMP:  27; 6HR MAX TEMP:  46;

HIBBING        FAIR      42  29  59 SE12      29.93F
6HR MIN TEMP:  25; 6HR MAX TEMP:  42;

ALEXANDRIA     FAIR      48  41  76 SE14      29.82F
6HR MIN TEMP:  37; 6HR MAX TEMP:  48;

SAINT CLOUD    FAIR      52  42  69 SE14      29.89S
6HR MIN TEMP:  31; 6HR MAX TEMP:  52;

MINNEAPOLIS    PTSUNNY   55  38  52 SE10      29.93S
6HR MIN TEMP:  34; 6HR MAX TEMP:  55;

$$

  *****  WEATHER ACROSS SOUTH DAKOTA  *****

CITY           SKY/WX    TMP DP  RH WIND       PRES   REMARKS
SIOUX FALLS    PTSUNNY   57  49  74 S18G24    29.78F
6HR MIN TEMP:  40; 6HR MAX TEMP:  57;

BROOKINGS      FAIR      53  43  68 S20G26    29.74F
WATERTOWN      FAIR      50  42  74 SE18G28   29.71F
6HR MIN TEMP:  39; 6HR MAX TEMP:  50;

HURON          FAIR      57  44  62 S16G24    29.64F
6HR MIN TEMP:  38; 6HR MAX TEMP:  57;

SISSETON         N/A     45  41  86 S15       29.70F
ABERDEEN       FAIR      52  42  69 SE18      29.63F
6HR MIN TEMP:  39; 6HR MAX TEMP:  53;

MITCHELL       FAIR      57  46  66 S22G30    29.68F
PIERRE         FAIR      60  38  43 S17       29.53F
6HR MIN TEMP:  38; 6HR MAX TEMP:  60;

MOBRIDGE       FAIR      45  35  68 S9        29.52F
RAPID CITY     FAIR      67  32  27 S18G25    29.52F
6HR MIN TEMP:  34; 6HR MAX TEMP:  67;

$$

  *****  SOME WEATHER IN NEARBY STATES *****

CITY           SKY/WX    TMP DP  RH WIND       PRES   REMARKS
GLASGOW MT     CLOUDY    33  32  96 E13G20    29.45F FOG     WCI  24
6HR MIN TEMP:  31; 6HR MAX TEMP:  33;

GREAT FALLS MT FAIR      50  27  40 SW20      29.43R
6HR MIN TEMP:  42; 6HR MAX TEMP:  51;

CHEYENNE WY    FAIR      51  26  37 S13       29.70S
6HR MIN TEMP:  37; 6HR MAX TEMP:  53;

SCOTTSBLUFF NE FAIR      49  31  49 SE7       29.68R
6HR MIN TEMP:  28; 6HR MAX TEMP:  49;

OMAHA NE       PTSUNNY   64  50  60 S22G28    29.87F
6HR MIN TEMP:  41; 6HR MAX TEMP:  64;

DES MOINES IA  PTSUNNY   67  49  52 S10       29.94F
6HR MIN TEMP:  41; 6HR MAX TEMP:  67;

DAVENPORT IA   FAIR      65  36  34 S8        30.03F
6HR MIN TEMP:  30; 6HR MAX TEMP:  65;

CHICAGO IL     FAIR      63  27  25 SE6       30.05S
6HR MIN TEMP:  37; 6HR MAX TEMP:  63;

EAU CLAIRE WI  FAIR      54  37  52 S12       29.98F
6HR MIN TEMP:  25; 6HR MAX TEMP:  54;

LA CROSSE WI   FAIR      55  35  47 S7        30.00F
6HR MIN TEMP:  28; 6HR MAX TEMP:  55;

$$

  *****  SOME NATIONAL WEATHER *****

CITY           SKY/WX    TMP DP  RH WIND       PRES   REMARKS
LA GUARDIA NY  PTSUNNY   64  34  32 NW12      29.79F
6HR MIN TEMP:  54; 6HR MAX TEMP:  64;

RALEIGH NC     FAIR      69  41  36 NW6       29.97F
6HR MIN TEMP:  44; 6HR MAX TEMP:  70;

ATLANTA GA     CLOUDY    64  50  60 NW12      30.10S
6HR MIN TEMP:  53; 6HR MAX TEMP:  65;

NEW ORLEANS LA PTSUNNY   72  64  76 NE6       30.06F
6HR MIN TEMP:  55; 6HR MAX TEMP:  72;

OKLAHOMA CITY  PTSUNNY   66  58  75 S16       29.90F
6HR MIN TEMP:  55; 6HR MAX TEMP:  66;

ALBUQUERQUE NM PTSUNNY   45  39  79 S10       29.89S
6HR MIN TEMP:  39; 6HR MAX TEMP:  46; 6HR PCP:  0.01;

SALT LAKE CITY LGT RAIN  46  42  86 S8        29.69R
6HR MIN TEMP:  43; 6HR MAX TEMP:  49; 6HR PCP:  0.11;

LOS ANGELES CA LGT RAIN  56  50  80 VRB5      29.96R
6HR MIN TEMP:  51; 6HR MAX TEMP:  56; 6HR PCP:  0.01;

BOISE ID       PTSUNNY



USA.gov is the U.S. government's official web portal to all federal, state and local government web resources and services.